Time,TemperatureF,DewpointF,PressureIn,WindDirection,WindDirectionDegrees,WindSpeedMPH,WindSpeedGustMPH,Humidity,HourlyPrecipIn,Conditions,Clouds,dailyrainin,SolarRadiationWatts/m^2,SoftwareType,DateUTC
2013-08-20 00:02:00,50.0,49.0,-100.00,ESE,104,2.0,5.0,96,0.01,,,0.34,0.800000,,2013-08-20 08:02:00,
2013-08-20 00:11:00,50.0,49.0,-100.00,ESE,104,2.0,5.0,96,0.01,,,0.34,0.800000,,2013-08-20 08:11:00,
2013-08-20 00:21:00,50.0,49.0,-100.00,ESE,104,2.0,5.0,96,0.01,,,0.34,0.800000,,2013-08-20 08:21:00,
2013-08-20 00:52:00,50.0,50.0,-100.00,NNE,33,3.0,5.0,99,0.01,,,0.34,0.800000,,2013-08-20 08:52:00,
2013-08-20 01:01:00,50.0,50.0,-100.00,NNE,33,3.0,5.0,99,0.01,,,0.34,0.800000,,2013-08-20 09:01:00,
2013-08-20 01:11:00,50.0,50.0,-100.00,NNE,33,3.0,5.0,99,0.01,,,0.34,0.800000,,2013-08-20 09:11:00,
2013-08-20 01:21:00,50.0,50.0,-100.00,NNE,33,3.0,5.0,99,0.01,,,0.34,0.800000,,2013-08-20 09:21:00,
2013-08-20 01:53:00,50.0,50.0,-100.00,ENE,66,3.0,5.0,100,0.02,,,0.36,0.800000,,2013-08-20 09:53:00,
2013-08-20 02:03:00,50.0,50.0,-100.00,ENE,66,3.0,5.0,100,0.02,,,0.36,0.800000,,2013-08-20 10:03:00,
2013-08-20 02:12:00,50.0,50.0,-100.00,ENE,66,3.0,5.0,100,0.02,,,0.36,0.800000,,2013-08-20 10:12:00,
2013-08-20 02:22:00,50.0,50.0,-100.00,ENE,66,3.0,5.0,100,0.02,,,0.36,0.800000,,2013-08-20 10:22:00,
2013-08-20 02:52:00,51.0,51.0,-100.00,NNW,340,2.0,5.0,100,0.01,,,0.36,0.800000,,2013-08-20 10:52:00,
2013-08-20 03:02:00,51.0,51.0,-100.00,NNW,340,2.0,5.0,100,0.01,,,0.36,0.800000,,2013-08-20 11:02:00,
2013-08-20 03:11:00,51.0,51.0,-100.00,NNW,340,2.0,5.0,100,0.01,,,0.36,0.800000,,2013-08-20 11:11:00,
2013-08-20 03:21:00,51.0,51.0,-100.00,NNW,340,2.0,5.0,100,0.01,,,0.36,0.800000,,2013-08-20 11:21:00,
2013-08-20 03:52:00,51.0,51.0,-100.00,West,275,4.0,5.0,100,0.02,,,0.38,0.800000,,2013-08-20 11:52:00,
2013-08-20 04:01:00,51.0,51.0,-100.00,West,275,4.0,5.0,100,0.02,,,0.38,0.800000,,2013-08-20 12:01:00,
2013-08-20 04:12:00,51.0,51.0,-100.00,West,275,4.0,5.0,100,0.02,,,0.38,0.800000,,2013-08-20 12:12:00,
2013-08-20 04:21:00,51.0,51.0,-100.00,West,275,4.0,5.0,100,0.02,,,0.38,0.800000,,2013-08-20 12:21:00,
2013-08-20 04:52:00,51.0,51.0,-100.00,West,269,3.0,6.0,100,0.03,,,0.41,0.800000,,2013-08-20 12:52:00,
2013-08-20 05:01:00,51.0,51.0,-100.00,West,269,3.0,6.0,100,0.03,,,0.41,0.800000,,2013-08-20 13:01:00,
2013-08-20 05:11:00,51.0,51.0,-100.00,West,269,3.0,6.0,100,0.03,,,0.41,0.800000,,2013-08-20 13:11:00,
2013-08-20 05:21:00,51.0,51.0,-100.00,West,269,3.0,6.0,100,0.03,,,0.41,0.800000,,2013-08-20 13:21:00,
2013-08-20 05:52:00,51.0,51.0,-100.00,WSW,252,2.0,6.0,100,0.03,,,0.44,0.800000,,2013-08-20 13:52:00,
2013-08-20 06:02:00,51.0,51.0,-100.00,WSW,252,2.0,6.0,100,0.03,,,0.44,0.800000,,2013-08-20 14:02:00,
2013-08-20 06:11:00,51.0,51.0,-100.00,WSW,252,2.0,6.0,100,0.03,,,0.44,0.800000,,2013-08-20 14:11:00,
2013-08-20 06:21:00,51.0,51.0,-100.00,WSW,252,2.0,6.0,100,0.03,,,0.44,0.800000,,2013-08-20 14:21:00,
2013-08-20 06:52:00,51.0,51.0,-100.00,NW,322,0.0,4.0,100,0.03,,,0.47,0.900000,,2013-08-20 14:52:00,
2013-08-20 07:02:00,51.0,51.0,-100.00,NW,322,0.0,4.0,100,0.03,,,0.47,0.900000,,2013-08-20 15:02:00,
2013-08-20 07:11:00,51.0,51.0,-100.00,NW,322,0.0,4.0,100,0.03,,,0.47,0.900000,,2013-08-20 15:11:00,
2013-08-20 07:22:00,51.0,51.0,-100.00,NW,322,0.0,4.0,100,0.03,,,0.47,0.900000,,2013-08-20 15:22:00,
2013-08-20 07:28:00,-999.0,-99.9,-100.00,NNW,332,2.0,3.0,100,0.01,,,0.48,4.900000,,2013-08-20 15:28:00,
2013-08-20 07:53:00,51.0,51.0,-100.00,NNW,332,2.0,3.0,100,0.01,,,0.48,4.900000,,2013-08-20 15:53:00,
2013-08-20 08:04:00,51.0,51.0,-100.00,NNW,332,2.0,3.0,100,0.01,,,0.48,4.900000,,2013-08-20 16:04:00,
2013-08-20 08:15:00,51.0,51.0,-100.00,NNW,332,2.0,3.0,100,0.01,,,0.48,4.900000,,2013-08-20 16:15:00,
2013-08-20 08:53:00,51.0,51.0,-100.00,North,3,2.0,7.0,100,0.06,,,0.54,13.800000,,2013-08-20 16:53:00,
2013-08-20 09:03:00,51.0,51.0,-100.00,North,3,2.0,7.0,100,0.06,,,0.54,13.800000,,2013-08-20 17:03:00,
2013-08-20 09:12:00,51.0,51.0,-100.00,North,3,2.0,7.0,100,0.06,,,0.54,13.800000,,2013-08-20 17:12:00,
2013-08-20 09:24:00,51.0,51.0,-100.00,North,3,2.0,7.0,100,0.06,,,0.54,13.800000,,2013-08-20 17:24:00,
2013-08-20 09:52:00,51.0,51.0,-100.00,WSW,247,2.0,6.0,100,0.01,,,0.55,22.400000,,2013-08-20 17:52:00,
2013-08-20 10:02:00,51.0,51.0,-100.00,WSW,247,2.0,6.0,100,0.01,,,0.55,22.400000,,2013-08-20 18:02:00,
2013-08-20 10:12:00,51.0,51.0,-100.00,WSW,247,2.0,6.0,100,0.01,,,0.55,22.400000,,2013-08-20 18:12:00,
2013-08-20 10:21:00,51.0,51.0,-100.00,WSW,247,2.0,6.0,100,0.01,,,0.55,22.400000,,2013-08-20 18:21:00,
2013-08-20 10:52:00,51.0,51.0,-100.00,ESE,104,1.0,3.0,100,0.01,,,0.56,44.200001,,2013-08-20 18:52:00,
2013-08-20 11:01:00,51.0,51.0,-100.00,ESE,104,1.0,3.0,100,0.01,,,0.56,44.200001,,2013-08-20 19:01:00,
2013-08-20 11:11:00,51.0,51.0,-100.00,ESE,104,1.0,3.0,100,0.01,,,0.56,44.200001,,2013-08-20 19:11:00,
2013-08-20 11:21:00,51.0,51.0,-100.00,ESE,104,1.0,3.0,100,0.01,,,0.56,44.200001,,2013-08-20 19:21:00,
2013-08-20 11:52:00,51.0,51.0,-100.00,South,184,5.0,5.0,100,0.00,,,-99.99,62.099998,,2013-08-20 19:52:00,
2013-08-20 12:03:00,51.0,51.0,-100.00,South,184,5.0,5.0,100,0.00,,,-99.99,62.099998,,2013-08-20 20:03:00,
2013-08-20 12:11:00,51.0,51.0,-100.00,South,184,5.0,5.0,100,0.00,,,-99.99,62.099998,,2013-08-20 20:11:00,
2013-08-20 12:21:00,51.0,51.0,-100.00,South,184,5.0,5.0,100,0.00,,,-99.99,62.099998,,2013-08-20 20:21:00,
2013-08-20 12:52:00,53.0,53.0,-100.00,SW,225,2.0,7.0,100,0.00,,,0.56,141.699997,,2013-08-20 20:52:00,
2013-08-20 13:02:00,53.0,53.0,-100.00,SW,225,2.0,7.0,100,0.00,,,0.56,141.699997,,2013-08-20 21:02:00,
2013-08-20 13:11:00,53.0,53.0,-100.00,SW,225,2.0,7.0,100,0.00,,,0.56,141.699997,,2013-08-20 21:11:00,
2013-08-20 13:22:00,53.0,53.0,-100.00,SW,225,2.0,7.0,100,0.00,,,0.56,141.699997,,2013-08-20 21:22:00,
2013-08-20 14:14:00,54.0,53.0,-100.00,SE,143,3.0,4.0,94,0.00,,,0.54,205.399994,,2013-08-20 22:14:00,
2013-08-20 14:24:00,54.0,53.0,-100.00,SE,143,3.0,4.0,94,0.00,,,0.54,205.399994,,2013-08-20 22:24:00,
2013-08-20 14:53:00,54.0,51.0,-100.00,West,268,3.0,5.0,87,0.00,,,0.54,317.500000,,2013-08-20 22:53:00,
2013-08-20 15:03:00,54.0,51.0,-100.00,West,268,3.0,5.0,87,0.00,,,0.54,317.500000,,2013-08-20 23:03:00,
2013-08-20 15:12:00,54.0,51.0,-100.00,West,268,3.0,5.0,87,0.00,,,0.54,317.500000,,2013-08-20 23:12:00,
2013-08-20 15:22:00,54.0,51.0,-100.00,West,268,3.0,5.0,87,0.00,,,0.54,317.500000,,2013-08-20 23:22:00,
2013-08-20 15:53:00,53.0,50.0,-100.00,SW,229,2.0,5.0,90,0.01,,,0.55,204.000000,,2013-08-20 23:53:00,
2013-08-20 16:02:00,53.0,50.0,-100.00,SW,229,2.0,5.0,90,0.01,,,0.55,204.000000,,2013-08-21 00:02:00,
2013-08-20 16:12:00,53.0,50.0,-100.00,SW,229,2.0,5.0,90,0.01,,,0.55,204.000000,,2013-08-21 00:12:00,
2013-08-20 16:22:00,53.0,50.0,-100.00,SW,229,2.0,5.0,90,0.01,,,0.55,204.000000,,2013-08-21 00:22:00,
2013-08-20 16:52:00,54.0,49.0,-100.00,South,175,3.0,5.0,85,0.00,,,0.55,159.500000,,2013-08-21 00:52:00,
2013-08-20 17:02:00,54.0,49.0,-100.00,South,175,3.0,5.0,85,0.00,,,0.55,159.500000,,2013-08-21 01:02:00,
2013-08-20 17:11:00,54.0,49.0,-100.00,South,175,3.0,5.0,85,0.00,,,0.55,159.500000,,2013-08-21 01:11:00,
2013-08-20 17:21:00,54.0,49.0,-100.00,South,175,3.0,5.0,85,0.00,,,0.55,159.500000,,2013-08-21 01:21:00,
2013-08-20 17:52:00,54.0,51.0,-100.00,SE,138,3.0,5.0,91,0.00,,,0.53,160.600006,,2013-08-21 01:52:00,
2013-08-20 18:02:00,54.0,51.0,-100.00,SE,138,3.0,5.0,91,0.00,,,0.53,160.600006,,2013-08-21 02:02:00,
2013-08-20 18:12:00,54.0,51.0,-100.00,SE,138,3.0,5.0,91,0.00,,,0.53,160.600006,,2013-08-21 02:12:00,
2013-08-20 18:22:00,54.0,51.0,-100.00,SE,138,3.0,5.0,91,0.00,,,0.53,160.600006,,2013-08-21 02:22:00,
2013-08-20 18:52:00,53.0,51.0,-100.00,South,175,4.0,7.0,95,0.00,,,0.52,155.100006,,2013-08-21 02:52:00,
2013-08-20 19:02:00,53.0,51.0,-100.00,South,175,4.0,7.0,95,0.00,,,0.52,155.100006,,2013-08-21 03:02:00,
2013-08-20 19:12:00,53.0,51.0,-100.00,South,175,4.0,7.0,95,0.00,,,0.52,155.100006,,2013-08-21 03:12:00,
2013-08-20 19:22:00,53.0,51.0,-100.00,South,175,4.0,7.0,95,0.00,,,0.52,155.100006,,2013-08-21 03:22:00,
2013-08-20 19:55:00,51.0,50.0,-100.00,South,180,5.0,6.0,97,0.00,,,0.45,103.099998,,2013-08-21 03:55:00,
2013-08-20 20:04:00,51.0,50.0,-100.00,South,180,5.0,6.0,97,0.00,,,0.45,103.099998,,2013-08-21 04:04:00,
2013-08-20 20:13:00,51.0,50.0,-100.00,South,180,5.0,6.0,97,0.00,,,0.45,103.099998,,2013-08-21 04:13:00,
2013-08-20 20:23:00,51.0,50.0,-100.00,South,180,5.0,6.0,97,0.00,,,0.45,103.099998,,2013-08-21 04:23:00,
2013-08-20 20:54:00,50.0,50.0,-100.00,South,183,3.0,10.0,97,0.00,,,0.38,27.200001,,2013-08-21 04:54:00,
2013-08-20 21:02:00,50.0,50.0,-100.00,South,183,3.0,10.0,97,0.00,,,0.38,27.200001,,2013-08-21 05:02:00,
2013-08-20 21:12:00,50.0,50.0,-100.00,South,183,3.0,10.0,97,0.00,,,0.38,27.200001,,2013-08-21 05:12:00,
2013-08-20 21:22:00,50.0,50.0,-100.00,South,183,3.0,10.0,97,0.00,,,0.38,27.200001,,2013-08-21 05:22:00,
2013-08-20 21:52:00,50.0,49.0,-100.00,South,186,3.0,9.0,97,0.00,,,0.29,13.900000,,2013-08-21 05:52:00,
2013-08-20 22:02:00,50.0,49.0,-100.00,South,186,3.0,9.0,97,0.00,,,0.29,13.900000,,2013-08-21 06:02:00,
2013-08-20 22:12:00,50.0,49.0,-100.00,South,186,3.0,9.0,97,0.00,,,0.29,13.900000,,2013-08-21 06:12:00,
2013-08-20 22:22:00,50.0,49.0,-100.00,South,186,3.0,9.0,97,0.00,,,0.29,13.900000,,2013-08-21 06:22:00,
2013-08-20 22:52:00,50.0,49.0,-100.00,SSW,199,4.0,9.0,96,0.00,,,0.26,1.000000,,2013-08-21 06:52:00,
2013-08-20 23:01:00,50.0,49.0,-100.00,SSW,199,4.0,9.0,96,0.00,,,0.26,1.000000,,2013-08-21 07:01:00,
2013-08-20 23:11:00,50.0,49.0,-100.00,SSW,199,4.0,9.0,96,0.00,,,0.26,1.000000,,2013-08-21 07:11:00,
2013-08-20 23:21:00,50.0,49.0,-100.00,SSW,199,4.0,9.0,96,0.00,,,0.26,1.000000,,2013-08-21 07:21:00,
2013-08-20 23:53:00,50.0,49.0,-100.00,SSE,163,3.0,7.0,95,0.00,,,0.25,0.800000,,2013-08-21 07:53:00,